Time,TemperatureF,DewpointF,PressureIn,WindDirection,WindDirectionDegrees,WindSpeedMPH,WindSpeedGustMPH,Humidity,HourlyPrecipIn,Conditions,Clouds,dailyrainin,SolarRadiationWatts/m^2,SoftwareType,DateUTC
2013-06-25 00:04:00,56.8,55.7,29.85,WNW,292,8.1,8.1,96,0.00,CLR,,0.11,0.0,WeatherDisplay:10.37,2013-06-24 22:04:00,
2013-06-25 00:09:00,57.0,55.9,29.85,WNW,292,5.8,5.8,96,0.00,CLR,,0.11,0.0,WeatherDisplay:10.37,2013-06-24 22:09:00,
2013-06-25 00:14:00,56.8,55.7,29.85,WNW,292,6.0,6.0,96,0.00,CLR,,0.11,0.0,WeatherDisplay:10.37,2013-06-24 22:14:00,
2013-06-25 00:20:00,56.8,55.7,29.85,NNW,338,5.6,5.6,96,0.00,CLR,,0.11,0.0,WeatherDisplay:10.37,2013-06-24 22:20:00,
2013-06-25 00:25:00,56.8,55.7,29.85,WNW,292,5.8,5.8,96,0.00,CLR,,0.11,0.0,WeatherDisplay:10.37,2013-06-24 22:25:00,
2013-06-25 00:30:00,56.8,55.7,29.85,West,270,5.6,5.6,96,0.00,CLR,,0.11,0.0,WeatherDisplay:10.37,2013-06-24 22:30:00,
2013-06-25 00:35:00,56.8,55.7,29.85,SSW,202,4.9,4.9,96,0.00,CLR,,0.11,0.0,WeatherDisplay:10.37,2013-06-24 22:35:00,
2013-06-25 00:40:00,56.8,55.4,29.85,WNW,292,6.9,6.9,95,0.00,CLR,,0.11,0.0,WeatherDisplay:10.37,2013-06-24 22:40:00,
2013-06-25 00:46:00,56.8,55.4,29.83,WNW,292,6.9,6.9,95,0.00,CLR,,0.11,0.0,WeatherDisplay:10.37,2013-06-24 22:46:00,
2013-06-25 00:51:00,56.8,55.7,29.83,WNW,292,2.4,2.4,96,0.00,CLR,,0.11,0.0,WeatherDisplay:10.37,2013-06-24 22:51:00,
2013-06-25 00:56:00,56.8,55.4,29.83,WNW,292,8.1,8.1,95,0.00,CLR,,0.11,0.0,WeatherDisplay:10.37,2013-06-24 22:56:00,
2013-06-25 01:01:00,56.8,55.4,29.85,WSW,248,5.8,5.8,95,0.00,CLR,,0.11,0.0,WeatherDisplay:10.37,2013-06-24 23:01:00,
2013-06-25 01:06:00,57.0,55.9,29.85,SSW,202,5.8,5.8,96,0.00,CLR,,0.11,0.0,WeatherDisplay:10.37,2013-06-24 23:06:00,
2013-06-25 01:12:00,56.8,55.7,29.85,WNW,292,8.5,8.5,96,0.00,CLR,,0.11,0.0,WeatherDisplay:10.37,2013-06-24 23:12:00,
2013-06-25 01:17:00,56.8,55.4,29.85,WNW,292,4.6,4.6,95,0.00,CLR,,0.11,0.0,WeatherDisplay:10.37,2013-06-24 23:17:00,
2013-06-25 01:23:00,56.8,55.4,29.85,SW,225,8.1,8.1,95,0.00,CLR,,0.11,0.0,WeatherDisplay:10.37,2013-06-24 23:23:00,
2013-06-25 01:28:00,56.8,55.4,29.85,WNW,292,4.6,4.6,95,0.00,CLR,,0.11,0.0,WeatherDisplay:10.37,2013-06-24 23:28:00,
2013-06-25 01:33:00,56.8,55.4,29.83,WNW,292,5.8,5.8,95,0.00,CLR,,0.11,0.0,WeatherDisplay:10.37,2013-06-24 23:33:00,
2013-06-25 01:38:00,56.8,55.4,29.83,WNW,292,4.9,4.9,95,0.00,CLR,,0.11,0.0,WeatherDisplay:10.37,2013-06-24 23:38:00,
2013-06-25 01:43:00,56.7,55.2,29.83,WNW,292,9.2,9.2,95,0.00,CLR,,0.11,0.0,WeatherDisplay:10.37,2013-06-24 23:43:00,
2013-06-25 01:48:00,56.7,55.2,29.88,WNW,292,5.8,5.8,95,0.00,CLR,,0.11,0.0,WeatherDisplay:10.37,2013-06-24 23:48:00,
2013-06-25 01:53:00,56.7,55.2,29.88,WNW,292,8.7,8.7,95,0.00,CLR,,0.11,0.0,WeatherDisplay:10.37,2013-06-24 23:53:00,
2013-06-25 01:58:00,56.7,55.2,29.88,West,270,5.8,5.8,95,0.00,CLR,,0.11,0.0,WeatherDisplay:10.37,2013-06-24 23:58:00,
2013-06-25 02:04:00,56.7,55.2,29.85,WNW,292,5.9,5.9,95,0.00,CLR,,0.11,0.0,WeatherDisplay:10.37,2013-06-25 00:04:00,
2013-06-25 02:09:00,56.7,55.2,29.85,WNW,292,4.6,4.6,95,0.00,CLR,,0.11,0.0,WeatherDisplay:10.37,2013-06-25 00:09:00,
2013-06-25 02:14:00,56.7,55.0,29.85,West,270,5.8,5.8,94,0.00,CLR,,0.11,0.0,WeatherDisplay:10.37,2013-06-25 00:14:00,
2013-06-25 02:20:00,56.7,55.0,29.85,West,270,6.9,6.9,94,0.00,CLR,,0.11,0.0,WeatherDisplay:10.37,2013-06-25 00:20:00,
2013-06-25 02:25:00,56.7,55.2,29.85,SSW,202,3.5,3.5,95,0.00,CLR,,0.11,0.0,WeatherDisplay:10.37,2013-06-25 00:25:00,
2013-06-25 02:30:00,56.7,55.2,29.85,WNW,292,3.5,3.5,95,0.00,CLR,,0.11,0.0,WeatherDisplay:10.37,2013-06-25 00:30:00,
2013-06-25 02:36:00,56.7,55.0,29.85,WNW,292,3.8,3.8,94,0.00,CLR,,0.11,0.0,WeatherDisplay:10.37,2013-06-25 00:36:00,
2013-06-25 02:41:00,56.7,55.0,29.85,NW,315,5.8,5.8,94,0.00,CLR,,0.11,0.0,WeatherDisplay:10.37,2013-06-25 00:41:00,
2013-06-25 02:46:00,56.5,54.8,29.85,WNW,292,5.8,5.8,94,0.00,CLR,,0.11,0.0,WeatherDisplay:10.37,2013-06-25 00:46:00,
2013-06-25 02:51:00,56.7,55.0,29.85,WNW,292,4.6,4.6,94,0.00,CLR,,0.11,0.0,WeatherDisplay:10.37,2013-06-25 00:51:00,
2013-06-25 02:56:00,56.5,54.8,29.85,WSW,248,6.9,6.9,94,0.00,CLR,,0.11,0.0,WeatherDisplay:10.37,2013-06-25 00:56:00,
2013-06-25 03:02:00,56.5,54.8,29.85,WSW,248,3.5,3.5,94,0.00,CLR,,0.11,0.0,WeatherDisplay:10.37,2013-06-25 01:02:00,
2013-06-25 03:08:00,56.5,54.8,29.85,WNW,292,5.9,5.9,94,0.00,CLR,,0.11,0.0,WeatherDisplay:10.37,2013-06-25 01:08:00,
2013-06-25 03:13:00,56.5,54.8,29.85,WSW,248,8.1,8.1,94,0.00,CLR,,0.11,0.0,WeatherDisplay:10.37,2013-06-25 01:13:00,
2013-06-25 03:18:00,56.5,54.8,29.85,WNW,292,5.4,5.4,94,0.00,CLR,,0.11,0.0,WeatherDisplay:10.37,2013-06-25 01:18:00,
2013-06-25 03:24:00,56.5,54.8,29.85,WNW,292,3.5,3.5,94,0.00,CLR,,0.11,0.0,WeatherDisplay:10.37,2013-06-25 01:24:00,
2013-06-25 03:29:00,56.5,54.8,29.85,NNW,338,4.0,4.0,94,0.00,CLR,,0.11,0.0,WeatherDisplay:10.37,2013-06-25 01:29:00,
2013-06-25 03:34:00,56.5,54.8,29.85,WSW,248,3.5,3.5,94,0.00,CLR,,0.11,0.0,WeatherDisplay:10.37,2013-06-25 01:34:00,
2013-06-25 03:39:00,56.5,54.8,29.85,WNW,292,5.4,5.4,94,0.00,CLR,,0.11,0.0,WeatherDisplay:10.37,2013-06-25 01:39:00,
2013-06-25 03:44:00,56.5,54.8,29.85,WNW,292,8.1,8.1,94,0.00,CLR,,0.11,0.0,WeatherDisplay:10.37,2013-06-25 01:44:00,
2013-06-25 03:49:00,56.5,54.8,29.85,NNW,338,8.1,8.1,94,0.00,CLR,,0.11,0.0,WeatherDisplay:10.37,2013-06-25 01:49:00,
2013-06-25 03:54:00,56.3,54.6,29.85,WSW,248,5.8,5.8,94,0.00,CLR,,0.11,0.0,WeatherDisplay:10.37,2013-06-25 01:54:00,
2013-06-25 03:59:00,56.3,54.6,29.85,WSW,248,5.8,5.8,94,0.00,CLR,,0.11,0.0,WeatherDisplay:10.37,2013-06-25 01:59:00,
2013-06-25 04:04:00,56.5,54.8,29.85,WNW,292,4.6,4.7,94,0.00,CLR,,0.11,0.0,WeatherDisplay:10.37,2013-06-25 02:04:00,
2013-06-25 04:09:00,56.3,54.6,29.85,WNW,292,5.8,5.8,94,0.00,CLR,,0.11,0.0,WeatherDisplay:10.37,2013-06-25 02:09:00,
2013-06-25 04:15:00,56.3,54.6,29.85,NW,315,5.8,5.8,94,0.00,CLR,,0.11,0.0,WeatherDisplay:10.37,2013-06-25 02:15:00,
2013-06-25 04:20:00,56.3,54.6,29.85,WSW,248,4.6,4.6,94,0.00,OVC,,0.11,0.0,WeatherDisplay:10.37,2013-06-25 02:20:00,
2013-06-25 04:25:00,56.3,54.6,29.85,WNW,292,9.2,9.2,94,0.00,OVC,,0.11,0.0,WeatherDisplay:10.37,2013-06-25 02:25:00,
2013-06-25 04:30:00,56.3,54.6,29.88,North,0,5.6,5.6,94,0.00,OVC,,0.11,0.0,WeatherDisplay:10.37,2013-06-25 02:30:00,
2013-06-25 04:35:00,56.3,54.3,29.88,WNW,292,4.6,4.6,93,0.00,OVC,,0.11,0.0,WeatherDisplay:10.37,2013-06-25 02:35:00,
2013-06-25 04:41:00,56.3,54.6,29.88,WSW,248,4.6,4.6,94,0.00,OVC,,0.11,0.0,WeatherDisplay:10.37,2013-06-25 02:41:00,
2013-06-25 04:46:00,56.3,54.3,29.88,NNW,338,4.0,4.0,93,0.00,OVC,,0.11,0.0,WeatherDisplay:10.37,2013-06-25 02:46:00,
2013-06-25 04:51:00,56.3,54.3,29.88,WNW,292,7.1,7.1,93,0.00,OVC,,0.11,0.0,WeatherDisplay:10.37,2013-06-25 02:51:00,
2013-06-25 04:57:00,56.3,54.3,29.88,WNW,292,5.8,5.8,93,0.00,OVC,,0.11,0.7,WeatherDisplay:10.37,2013-06-25 02:57:00,
2013-06-25 05:02:00,56.3,54.3,29.88,West,270,3.5,3.5,93,0.00,OVC,,0.11,2.6,WeatherDisplay:10.37,2013-06-25 03:02:00,
2013-06-25 05:08:00,56.3,54.6,29.88,WSW,248,3.5,3.5,94,0.00,OVC,,0.11,5.1,WeatherDisplay:10.37,2013-06-25 03:08:00,
2013-06-25 05:13:00,56.3,54.6,29.88,West,270,3.5,3.5,94,0.00,OVC,,0.11,7.3,WeatherDisplay:10.37,2013-06-25 03:13:00,
2013-06-25 05:18:00,56.3,54.6,29.88,WSW,248,4.3,4.3,94,0.00,OVC,,0.11,9.4,WeatherDisplay:10.37,2013-06-25 03:18:00,
2013-06-25 05:23:00,56.5,54.5,29.88,WNW,292,4.6,4.6,93,0.00,OVC,,0.11,11.7,WeatherDisplay:10.37,2013-06-25 03:23:00,
2013-06-25 05:29:00,56.5,54.8,29.88,West,270,3.6,3.6,94,0.00,OVC,,0.11,14.4,WeatherDisplay:10.37,2013-06-25 03:29:00,
2013-06-25 05:34:00,56.5,54.5,29.88,West,270,5.8,5.8,93,0.00,OVC,,0.11,16.7,WeatherDisplay:10.37,2013-06-25 03:34:00,
2013-06-25 05:39:00,56.7,54.7,29.88,WNW,292,4.6,4.6,93,0.00,OVC,,0.11,19.0,WeatherDisplay:10.37,2013-06-25 03:39:00,
2013-06-25 05:45:00,56.7,54.7,29.88,NNW,338,3.5,3.5,93,0.00,OVC,,0.11,21.8,WeatherDisplay:10.37,2013-06-25 03:45:00,
2013-06-25 05:51:00,56.7,54.7,29.88,WNW,292,5.4,5.4,93,0.00,OVC,,0.11,24.1,WeatherDisplay:10.37,2013-06-25 03:51:00,
2013-06-25 05:56:00,56.7,54.7,29.88,WSW,248,5.8,5.8,93,0.00,OVC,,0.11,26.9,WeatherDisplay:10.37,2013-06-25 03:56:00,
2013-06-25 06:01:00,56.8,54.8,29.88,WNW,292,5.8,5.8,93,0.00,OVC,,0.11,29.4,WeatherDisplay:10.37,2013-06-25 04:01:00,
2013-06-25 06:02:00,56.8,54.8,29.88,WSW,248,4.6,4.6,93,0.00,OVC,,0.11,29.9,WeatherDisplay:10.37,2013-06-25 04:02:00,
2013-06-25 06:07:00,56.8,54.8,29.88,West,270,4.6,4.6,93,0.00,OVC,,0.11,32.3,WeatherDisplay:10.37,2013-06-25 04:07:00,
2013-06-25 06:12:00,56.8,54.8,29.88,WSW,248,3.5,3.5,93,0.00,OVC,,0.11,34.8,WeatherDisplay:10.37,2013-06-25 04:12:00,
2013-06-25 06:17:00,56.8,54.8,29.91,WNW,292,4.6,4.6,93,0.00,OVC,,0.11,37.5,WeatherDisplay:10.37,2013-06-25 04:17:00,
2013-06-25 06:22:00,56.8,54.8,29.91,WSW,248,4.6,4.6,93,0.00,OVC,,0.11,39.9,WeatherDisplay:10.37,2013-06-25 04:22:00,
2013-06-25 06:27:00,56.8,54.8,29.91,West,270,4.3,4.3,93,0.00,OVC,,0.11,42.6,WeatherDisplay:10.37,2013-06-25 04:27:00,
2013-06-25 06:32:00,56.8,54.8,29.91,WNW,292,4.6,4.6,93,0.00,OVC,,0.11,45.0,WeatherDisplay:10.37,2013-06-25 04:32:00,
2013-06-25 06:37:00,56.8,54.5,29.91,WNW,292,3.5,3.5,92,0.00,OVC,,0.11,47.7,WeatherDisplay:10.37,2013-06-25 04:37:00,
2013-06-25 06:42:00,57.0,54.7,29.91,West,270,4.6,4.6,92,0.00,OVC,,0.11,50.3,WeatherDisplay:10.37,2013-06-25 04:42:00,
2013-06-25 06:47:00,57.0,54.7,29.91,SSW,202,2.3,2.3,92,0.00,OVC,,0.11,53.1,WeatherDisplay:10.37,2013-06-25 04:47:00,
2013-06-25 06:52:00,57.0,55.0,29.91,WNW,292,3.5,3.5,93,0.00,OVC,,0.11,55.8,WeatherDisplay:10.37,2013-06-25 04:52:00,
2013-06-25 06:57:00,57.0,54.7,29.91,WNW,292,5.8,5.8,92,0.00,OVC,,0.11,58.4,WeatherDisplay:10.37,2013-06-25 04:57:00,
2013-06-25 07:02:00,56.8,54.5,29.94,WNW,292,5.8,5.8,92,0.00,OVC,,0.11,61.2,WeatherDisplay:10.37,2013-06-25 05:02:00,
2013-06-25 07:07:00,57.0,54.7,29.94,WNW,292,8.1,8.1,92,0.00,OVC,,0.11,63.9,WeatherDisplay:10.37,2013-06-25 05:07:00,
2013-06-25 07:12:00,56.8,54.5,29.94,WNW,292,3.5,3.5,92,0.00,OVC,,0.11,66.7,WeatherDisplay:10.37,2013-06-25 05:12:00,
2013-06-25 07:17:00,57.0,54.7,29.91,West,270,4.3,4.3,92,0.00,OVC,,0.11,69.3,WeatherDisplay:10.37,2013-06-25 05:17:00,
2013-06-25 07:22:00,57.0,54.7,29.91,WNW,292,3.8,3.8,92,0.00,OVC,,0.11,72.1,WeatherDisplay:10.37,2013-06-25 05:22:00,
2013-06-25 07:27:00,57.0,54.7,29.91,WNW,292,3.5,3.5,92,0.00,OVC,,0.11,74.9,WeatherDisplay:10.37,2013-06-25 05:27:00,
2013-06-25 07:32:00,56.8,54.5,29.88,NNW,338,3.5,3.5,92,0.00,OVC,,0.11,77.7,WeatherDisplay:10.37,2013-06-25 05:32:00,
2013-06-25 07:37:00,57.0,55.0,29.88,WNW,292,4.6,4.6,93,0.00,OVC,,0.11,80.5,WeatherDisplay:10.37,2013-06-25 05:37:00,
2013-06-25 07:42:00,57.0,55.0,29.88,WNW,292,5.8,5.8,93,0.00,OVC,,0.11,83.3,WeatherDisplay:10.37,2013-06-25 05:42:00,
2013-06-25 07:47:00,57.0,55.0,29.91,SSW,202,4.6,4.6,93,0.00,OVC,,0.11,86.1,WeatherDisplay:10.37,2013-06-25 05:47:00,
2013-06-25 07:52:00,57.2,55.2,29.91,West,270,3.5,3.5,93,0.00,OVC,,0.11,88.9,WeatherDisplay:10.37,2013-06-25 05:52:00,
2013-06-25 07:57:00,57.4,55.4,29.91,WNW,292,5.8,5.8,93,0.00,OVC,,0.11,91.7,WeatherDisplay:10.37,2013-06-25 05:57:00,
2013-06-25 08:02:00,57.6,55.3,29.88,North,0,2.3,2.3,92,0.00,RA,,0.00,94.4,WeatherDisplay:10.37,2013-06-25 06:02:00,
2013-06-25 08:07:00,57.7,55.4,29.88,WNW,292,5.8,5.8,92,0.00,RA,,0.00,97.2,WeatherDisplay:10.37,2013-06-25 06:07:00,
2013-06-25 08:12:00,57.9,55.6,29.88,WSW,248,5.9,5.9,92,0.00,OVC,,0.00,100.0,WeatherDisplay:10.37,2013-06-25 06:12:00,
2013-06-25 08:17:00,58.1,55.5,29.91,WSW,248,5.8,5.8,91,0.00,OVC,,0.00,102.8,WeatherDisplay:10.37,2013-06-25 06:17:00,
2013-06-25 08:22:00,58.1,55.2,29.91,WNW,292,8.1,8.1,90,0.00,OVC,,0.00,105.6,WeatherDisplay:10.37,2013-06-25 06:22:00,
2013-06-25 08:27:00,58.1,55.2,29.91,SSW,202,4.9,4.9,90,0.00,OVC,,0.00,108.4,WeatherDisplay:10.37,2013-06-25 06:27:00,
2013-06-25 08:32:00,58.1,55.2,29.91,NNW,338,3.5,3.5,90,0.00,OVC,,0.00,111.2,WeatherDisplay:10.37,2013-06-25 06:32:00,
2013-06-25 08:37:00,58.1,55.2,29.91,SSW,202,3.5,3.5,90,0.00,OVC,,0.00,113.8,WeatherDisplay:10.37,2013-06-25 06:37:00,
2013-06-25 08:42:00,58.1,55.2,29.91,WSW,248,4.6,4.6,90,0.00,OVC,,0.00,116.7,WeatherDisplay:10.37,2013-06-25 06:42:00,
2013-06-25 08:47:00,58.1,54.9,29.91,WNW,292,8.1,8.1,89,0.00,OVC,,0.00,119.3,WeatherDisplay:10.37,2013-06-25 06:47:00,
2013-06-25 08:52:00,58.3,55.1,29.91,West,270,5.8,5.8,89,0.00,OVC,,0.00,121.9,WeatherDisplay:10.37,2013-06-25 06:52:00,
2013-06-25 08:57:00,58.5,55.2,29.91,West,270,6.4,6.4,89,0.00,OVC,,0.00,124.7,WeatherDisplay:10.37,2013-06-25 06:57:00,
2013-06-25 09:02:00,58.5,55.2,29.91,WNW,292,3.5,3.5,89,0.00,OVC,,0.00,127.4,WeatherDisplay:10.37,2013-06-25 07:02:00,
2013-06-25 09:07:00,58.5,55.2,29.91,West,270,3.5,3.5,89,0.00,OVC,,0.00,130.0,WeatherDisplay:10.37,2013-06-25 07:07:00,
2013-06-25 09:12:00,58.5,54.9,29.91,WSW,248,4.6,4.6,88,0.00,OVC,,0.00,132.7,WeatherDisplay:10.37,2013-06-25 07:12:00,
2013-06-25 09:17:00,58.3,54.7,29.91,West,270,4.6,4.6,88,0.00,OVC,,0.00,135.1,WeatherDisplay:10.37,2013-06-25 07:17:00,
2013-06-25 09:22:00,58.3,55.1,29.91,SSW,202,5.8,5.8,89,0.00,OVC,,0.00,137.8,WeatherDisplay:10.37,2013-06-25 07:22:00,
2013-06-25 09:27:00,58.3,55.1,29.91,WNW,292,6.7,6.7,89,0.00,OVC,,0.00,140.3,WeatherDisplay:10.37,2013-06-25 07:27:00,
2013-06-25 09:32:00,58.5,54.9,29.91,WNW,292,5.8,5.8,88,0.00,OVC,,0.00,142.7,WeatherDisplay:10.37,2013-06-25 07:32:00,
2013-06-25 09:37:00,58.6,55.4,29.91,WNW,292,4.6,4.6,89,0.00,OVC,,0.00,145.2,WeatherDisplay:10.37,2013-06-25 07:37:00,
2013-06-25 09:42:00,58.8,55.3,29.91,WNW,292,5.8,5.8,88,0.00,OVC,,0.00,147.7,WeatherDisplay:10.37,2013-06-25 07:42:00,
2013-06-25 09:47:00,58.6,54.8,29.94,NNW,338,4.6,4.6,87,0.00,OVC,,0.00,150.0,WeatherDisplay:10.37,2013-06-25 07:47:00,
2013-06-25 09:52:00,58.6,55.1,29.94,WNW,292,4.6,4.6,88,0.00,OVC,,0.00,152.3,WeatherDisplay:10.37,2013-06-25 07:52:00,
2013-06-25 09:57:00,58.6,55.1,29.94,WSW,248,5.8,5.8,88,0.00,OVC,,0.00,154.6,WeatherDisplay:10.37,2013-06-25 07:57:00,
2013-06-25 10:02:00,58.5,54.9,29.94,WSW,248,4.6,4.6,88,0.00,OVC,,0.00,156.9,WeatherDisplay:10.37,2013-06-25 08:02:00,
2013-06-25 10:07:00,58.5,54.6,29.94,WNW,292,4.6,4.6,87,0.00,OVC,,0.00,159.2,WeatherDisplay:10.37,2013-06-25 08:07:00,
2013-06-25 10:12:00,58.5,54.9,29.94,WNW,292,4.6,4.6,88,0.00,OVC,,0.00,161.4,WeatherDisplay:10.37,2013-06-25 08:12:00,
2013-06-25 10:17:00,58.5,54.9,29.94,WNW,292,2.3,2.3,88,0.00,OVC,,0.00,163.5,WeatherDisplay:10.37,2013-06-25 08:17:00,
2013-06-25 17:26:00,57.7,56.6,30.00,ENE,68,4.6,4.6,96,0.02,OVC,,0.03,114.3,WeatherDisplay:10.37,2013-06-25 15:26:00,
2013-06-25 17:31:00,57.7,56.6,30.00,NNW,338,5.8,5.8,96,0.02,OVC,,0.03,111.7,WeatherDisplay:10.37,2013-06-25 15:31:00,
2013-06-25 17:36:00,57.6,56.4,30.00,NNW,338,8.1,8.1,96,0.02,OVC,,0.03,108.9,WeatherDisplay:10.37,2013-06-25 15:36:00,
2013-06-25 17:41:00,57.6,56.4,30.00,NNW,338,9.2,9.2,96,0.02,OVC,,0.03,106.1,WeatherDisplay:10.37,2013-06-25 15:41:00,
2013-06-25 17:46:00,57.6,56.4,30.00,WNW,292,5.8,5.8,96,0.00,OVC,,0.03,103.3,WeatherDisplay:10.37,2013-06-25 15:46:00,
2013-06-25 17:51:00,57.4,56.0,30.00,West,270,9.2,9.2,95,0.00,OVC,,0.03,100.7,WeatherDisplay:10.37,2013-06-25 15:51:00,
2013-06-25 17:56:00,57.2,55.8,30.00,NNW,338,8.1,8.1,95,0.00,OVC,,0.03,97.8,WeatherDisplay:10.37,2013-06-25 15:56:00,
2013-06-25 18:01:00,57.2,55.8,30.00,WNW,292,5.8,5.8,95,0.00,OVC,,0.03,95.0,WeatherDisplay:10.37,2013-06-25 16:01:00,
2013-06-25 18:06:00,57.2,56.1,30.00,WNW,292,5.8,5.8,96,0.00,OVC,,0.03,92.2,WeatherDisplay:10.37,2013-06-25 16:06:00,
2013-06-25 18:11:00,57.2,56.1,30.00,WNW,292,3.5,3.6,96,0.00,OVC,,0.03,89.4,WeatherDisplay:10.37,2013-06-25 16:11:00,
2013-06-25 18:16:00,57.2,56.1,30.03,WSW,248,5.8,5.8,96,0.00,OVC,,0.03,86.6,WeatherDisplay:10.37,2013-06-25 16:16:00,
2013-06-25 18:21:00,57.2,56.1,30.03,West,270,5.8,5.8,96,0.00,OVC,,0.03,83.8,WeatherDisplay:10.37,2013-06-25 16:21:00,
2013-06-25 18:26:00,57.0,55.9,30.03,NNW,338,4.6,4.6,96,0.00,OVC,,0.03,81.0,WeatherDisplay:10.37,2013-06-25 16:26:00,
2013-06-25 18:31:00,57.0,55.9,30.00,WNW,292,9.2,9.2,96,0.00,OVC,,0.03,78.2,WeatherDisplay:10.37,2013-06-25 16:31:00,
2013-06-25 18:36:00,57.0,55.6,30.00,WNW,292,10.4,10.4,95,0.00,OVC,,0.03,75.4,WeatherDisplay:10.37,2013-06-25 16:36:00,
2013-06-25 18:41:00,56.8,55.4,30.00,WNW,292,5.8,5.8,95,0.00,OVC,,0.03,72.6,WeatherDisplay:10.37,2013-06-25 16:41:00,
2013-06-25 18:46:00,56.8,55.4,30.03,WNW,292,5.8,5.8,95,0.00,OVC,,0.03,70.0,WeatherDisplay:10.37,2013-06-25 16:46:00,
2013-06-25 18:51:00,56.8,55.4,30.03,North,0,10.4,10.4,95,0.00,OVC,,0.03,67.2,WeatherDisplay:10.37,2013-06-25 16:51:00,
2013-06-25 18:56:00,56.8,55.1,30.03,NNW,338,4.6,4.6,94,0.00,OVC,,0.03,64.3,WeatherDisplay:10.37,2013-06-25 16:56:00,
2013-06-25 19:01:00,56.8,55.1,30.06,NNW,338,4.6,4.6,94,0.00,OVC,,0.03,61.7,WeatherDisplay:10.37,2013-06-25 17:01:00,
2013-06-25 19:06:00,56.7,55.0,30.06,West,270,11.5,11.5,94,0.00,OVC,,0.03,58.9,WeatherDisplay:10.37,2013-06-25 17:06:00,
2013-06-25 19:11:00,56.7,55.0,30.06,NNW,338,9.2,9.2,94,0.00,OVC,,0.03,56.3,WeatherDisplay:10.37,2013-06-25 17:11:00,
2013-06-25 19:16:00,56.7,55.0,30.06,WNW,292,5.8,5.8,94,0.00,OVC,,0.03,53.6,WeatherDisplay:10.37,2013-06-25 17:16:00,
2013-06-25 19:21:00,56.7,55.0,30.06,North,0,4.6,4.6,94,0.00,OVC,,0.03,50.8,WeatherDisplay:10.37,2013-06-25 17:21:00,
2013-06-25 19:26:00,56.5,54.8,30.06,NNE,22,8.1,8.1,94,0.00,OVC,,0.03,48.2,WeatherDisplay:10.37,2013-06-25 17:26:00,
2013-06-25 19:31:00,56.5,54.5,30.03,NNW,338,11.5,11.5,93,0.00,OVC,,0.03,45.5,WeatherDisplay:10.37,2013-06-25 17:31:00,
2013-06-25 19:36:00,56.5,54.5,30.03,WNW,292,4.6,4.6,93,0.00,OVC,,0.03,43.1,WeatherDisplay:10.37,2013-06-25 17:36:00,
2013-06-25 19:41:00,56.5,54.5,30.03,WNW,292,8.1,8.1,93,0.00,OVC,,0.03,40.4,WeatherDisplay:10.37,2013-06-25 17:41:00,
2013-06-25 19:46:00,56.5,54.5,30.03,NNW,338,6.9,6.9,93,0.00,OVC,,0.03,38.0,WeatherDisplay:10.37,2013-06-25 17:46:00,
2013-06-25 19:51:00,56.3,54.6,30.03,WNW,292,6.4,6.4,94,0.00,OVC,,0.03,35.3,WeatherDisplay:10.37,2013-06-25 17:51:00,
2013-06-25 19:56:00,56.3,54.6,30.00,NNE,22,5.8,5.8,94,0.00,OVC,,0.03,32.8,WeatherDisplay:10.37,2013-06-25 17:56:00,
2013-06-25 20:01:00,56.1,54.4,30.03,West,270,6.7,6.7,94,0.00,OVC,,0.03,30.4,WeatherDisplay:10.37,2013-06-25 18:01:00,
2013-06-25 20:06:00,56.1,54.4,30.03,NW,315,8.1,8.1,94,0.00,OVC,,0.03,27.9,WeatherDisplay:10.37,2013-06-25 18:06:00,
2013-06-25 20:11:00,55.9,54.2,30.03,NNW,338,9.2,9.2,94,0.00,OVC,,0.03,25.4,WeatherDisplay:10.37,2013-06-25 18:11:00,
2013-06-25 20:16:00,55.9,54.2,30.03,WNW,292,2.4,2.9,94,0.00,OVC,,0.03,23.1,WeatherDisplay:10.37,2013-06-25 18:16:00,
2013-06-25 20:21:00,55.9,54.2,30.03,NNW,338,8.1,8.1,94,0.00,OVC,,0.03,20.8,WeatherDisplay:10.37,2013-06-25 18:21:00,
2013-06-25 20:26:00,55.8,53.8,30.03,NW,315,11.5,11.5,93,0.00,OVC,,0.03,18.5,WeatherDisplay:10.37,2013-06-25 18:26:00,
2013-06-25 20:31:00,55.8,53.8,30.03,NNW,338,7.1,7.1,93,0.00,OVC,,0.03,16.2,WeatherDisplay:10.37,2013-06-25 18:31:00,
2013-06-25 20:36:00,55.8,53.8,30.03,WNW,292,5.8,5.8,93,0.00,OVC,,0.03,13.9,WeatherDisplay:10.37,2013-06-25 18:36:00,
2013-06-25 20:41:00,55.8,53.8,30.03,NNW,338,6.9,6.9,93,0.00,OVC,,0.03,11.6,WeatherDisplay:10.37,2013-06-25 18:41:00,
2013-06-25 20:46:00,55.6,53.6,30.03,WNW,292,8.1,8.1,93,0.00,OVC,,0.03,9.4,WeatherDisplay:10.37,2013-06-25 18:46:00,
2013-06-25 20:51:00,55.6,53.6,30.03,WSW,248,6.9,6.9,93,0.00,OVC,,0.03,7.3,WeatherDisplay:10.37,2013-06-25 18:51:00,
2013-06-25 20:56:00,55.6,53.6,30.03,WNW,292,5.8,5.8,93,0.00,OVC,,0.03,5.1,WeatherDisplay:10.37,2013-06-25 18:56:00,
2013-06-25 21:01:00,55.4,53.4,30.06,West,270,5.8,5.8,93,0.00,CLR,,0.03,0.0,WeatherDisplay:10.37,2013-06-25 19:01:00,
2013-06-25 21:06:00,55.4,53.4,30.06,WNW,292,5.8,5.8,93,0.00,CLR,,0.03,0.0,WeatherDisplay:10.37,2013-06-25 19:06:00,
2013-06-25 21:11:00,55.4,53.4,30.06,NNW,338,6.9,6.9,93,0.00,CLR,,0.03,0.0,WeatherDisplay:10.37,2013-06-25 19:11:00,
2013-06-25 21:16:00,55.2,53.2,30.06,WNW,292,6.9,6.9,93,0.00,CLR,,0.03,0.0,WeatherDisplay:10.37,2013-06-25 19:16:00,
2013-06-25 21:21:00,55.2,53.5,30.06,WSW,248,4.6,4.6,94,0.00,CLR,,0.03,0.0,WeatherDisplay:10.37,2013-06-25 19:21:00,
2013-06-25 21:26:00,55.2,53.8,30.06,WNW,292,6.4,6.4,95,0.00,CLR,,0.03,0.0,WeatherDisplay:10.37,2013-06-25 19:26:00,
2013-06-25 21:31:00,55.2,53.8,30.06,WNW,292,5.8,5.8,95,0.00,CLR,,0.03,0.0,WeatherDisplay:10.37,2013-06-25 19:31:00,
2013-06-25 21:36:00,55.2,53.8,30.06,West,270,5.8,5.8,95,0.00,RA,,0.04,0.0,WeatherDisplay:10.37,2013-06-25 19:36:00,
2013-06-25 21:41:00,55.0,53.6,30.06,WNW,292,6.2,6.2,95,0.00,RA,,0.04,0.0,WeatherDisplay:10.37,2013-06-25 19:41:00,
2013-06-25 21:46:00,55.0,53.6,30.06,WNW,292,3.5,3.5,95,0.00,CLR,,0.04,0.0,WeatherDisplay:10.37,2013-06-25 19:46:00,
2013-06-25 21:51:00,55.0,53.6,30.06,WNW,292,6.4,6.4,95,0.00,CLR,,0.04,0.0,WeatherDisplay:10.37,2013-06-25 19:51:00,
2013-06-25 21:56:00,54.9,53.5,30.06,West,270,5.8,5.8,95,0.00,CLR,,0.04,0.0,WeatherDisplay:10.37,2013-06-25 19:56:00,
2013-06-25 22:01:00,54.9,53.5,30.09,WNW,292,6.9,6.9,95,0.00,CLR,,0.04,0.0,WeatherDisplay:10.37,2013-06-25 20:01:00,
2013-06-25 22:06:00,54.7,53.3,30.09,WSW,248,5.8,5.8,95,0.00,CLR,,0.04,0.0,WeatherDisplay:10.37,2013-06-25 20:06:00,
2013-06-25 22:11:00,54.7,53.3,30.09,WNW,292,6.9,6.9,95,0.00,CLR,,0.04,0.0,WeatherDisplay:10.37,2013-06-25 20:11:00,
2013-06-25 22:16:00,54.7,53.3,30.09,WSW,248,4.6,4.6,95,0.00,CLR,,0.04,0.0,WeatherDisplay:10.37,2013-06-25 20:16:00,
2013-06-25 22:21:00,54.5,53.1,30.09,NNW,338,6.9,6.9,95,0.00,CLR,,0.04,0.0,WeatherDisplay:10.37,2013-06-25 20:21:00,
2013-06-25 22:26:00,54.5,53.1,30.09,WNW,292,6.9,6.9,95,0.00,CLR,,0.04,0.0,WeatherDisplay:10.37,2013-06-25 20:26:00,
2013-06-25 22:31:00,54.5,53.1,30.09,WNW,292,4.6,4.6,95,0.00,CLR,,0.04,0.0,WeatherDisplay:10.37,2013-06-25 20:31:00,
2013-06-25 22:36:00,54.3,52.9,30.09,WNW,292,7.4,7.4,95,0.00,CLR,,0.04,0.0,WeatherDisplay:10.37,2013-06-25 20:36:00,
2013-06-25 22:41:00,54.3,52.9,30.09,NNE,22,9.2,9.2,95,0.00,CLR,,0.04,0.0,WeatherDisplay:10.37,2013-06-25 20:41:00,
2013-06-25 22:46:00,54.1,52.7,30.09,NNW,338,5.8,5.8,95,0.00,CLR,,0.04,0.0,WeatherDisplay:10.37,2013-06-25 20:46:00,
2013-06-25 22:51:00,54.1,52.7,30.09,NNW,338,6.9,6.9,95,0.00,CLR,,0.04,0.0,WeatherDisplay:10.37,2013-06-25 20:51:00,
2013-06-25 22:56:00,54.0,52.6,30.09,WNW,292,5.8,5.8,95,0.00,RA,,0.04,0.0,WeatherDisplay:10.37,2013-06-25 20:56:00,
2013-06-25 23:01:00,54.0,52.6,30.09,NNW,338,6.9,6.9,95,0.00,RA,,0.04,0.0,WeatherDisplay:10.37,2013-06-25 21:01:00,
2013-06-25 23:06:00,54.0,52.6,30.09,NNW,338,4.7,4.7,95,0.00,CLR,,0.04,0.0,WeatherDisplay:10.37,2013-06-25 21:06:00,
2013-06-25 23:11:00,53.8,52.4,30.09,NNW,338,8.5,8.5,95,0.00,CLR,,0.04,0.0,WeatherDisplay:10.37,2013-06-25 21:11:00,
2013-06-25 23:16:00,53.8,52.4,30.12,NNW,338,9.2,9.2,95,0.00,CLR,,0.04,0.0,WeatherDisplay:10.37,2013-06-25 21:16:00,
2013-06-25 23:21:00,53.8,52.4,30.12,WNW,292,8.1,8.1,95,0.00,CLR,,0.04,0.0,WeatherDisplay:10.37,2013-06-25 21:21:00,
2013-06-25 23:26:00,53.8,52.4,30.12,NNW,338,10.5,10.5,95,0.00,CLR,,0.04,0.0,WeatherDisplay:10.37,2013-06-25 21:26:00,
2013-06-25 23:31:00,53.6,52.2,30.12,WNW,292,9.2,9.2,95,0.00,CLR,,0.04,0.0,WeatherDisplay:10.37,2013-06-25 21:31:00,
2013-06-25 23:36:00,53.6,52.2,30.12,West,270,10.4,10.4,95,0.00,CLR,,0.04,0.0,WeatherDisplay:10.37,2013-06-25 21:36:00,
2013-06-25 23:41:00,53.6,52.2,30.12,NW,315,6.2,6.2,95,0.00,CLR,,0.04,0.0,WeatherDisplay:10.37,2013-06-25 21:41:00,
2013-06-25 23:46:00,53.6,52.2,30.06,NNW,338,10.4,10.4,95,0.01,RA,,0.04,0.0,WeatherDisplay:10.37,2013-06-25 21:46:00,
2013-06-25 23:51:00,53.6,52.2,30.06,NNW,338,9.2,9.2,95,0.01,RA,,0.04,0.0,WeatherDisplay:10.37,2013-06-25 21:51:00,
2013-06-25 23:56:00,53.4,52.0,30.06,North,0,9.2,9.2,95,0.00,CLR,,0.04,0.0,WeatherDisplay:10.37,2013-06-25 21:56:00,